User: anonymous   Login
Location: Betra
(48.4113°N, 8.6634°E)
Time: 06:53:38
(UTC+00:00)
Language:

Sich 1 Rocket - Orbit

View from above orbital plane
View from above orbital plane
View from above satellite
View from above satellite

Ground track
Ground track

The orbit data is extracted from the following two-line orbital elements,

1 23659U 95046C   24201.85227350  .00000837  00000-0  10864-3 0  9990
2 23659  82.5285  61.6955 0026232  42.7247 328.1737 14.79354249556870
Epoch (UTC): 19 July 2024 20:27:16
Eccentricity: 0.0026232
inclination: 82.5285°
perigee height: 613 km
apogee height: 650 km
right ascension of ascending node: 61.6955°
argument of perigee: 42.7247°
revolutions per day: 14.79354249
mean anomaly at epoch: 328.1737°
orbit number at epoch: 55687

The dashed part of the orbit path shows where the satellite is in the earth's shadow,  

DLR